Weather History for CYFC - October, 2012

Change the Weather History Date:

Wednesday, October 17, 2012

  Actual Average Record
Temperature  
Mean Temperature 42 °F -  
Max Temperature 52 °F 48 °F 68 °F (1999)
Min Temperature 31 °F 30 °F 19 °F (2000)
Degree Days  
Heating Degree Days 24    
Moisture  
Dew Point 35 °F    
Average Humidity 72    
Maximum Humidity 100    
Minimum Humidity 46    
Precipitation  
Precipitation 0.00 in 0.14 in - ()
Sea Level Pressure  
Sea Level Pressure 29.83 in    
Wind  
Wind Speed 6 mph ()    
Max Wind Speed 13 mph    
Max Gust Speed 18 mph    
Visibility 9.1 miles    
Events      
Averages and records for this station are not official NWS values.
T = Trace of Precipitation, MM = Missing Value Source: Averaged Metar Reports

Daily Weather History Graph

Daily Weather History Graph

Search for Another Location

Airport or City:

Trip Planner

Search our weather history database for the weather conditions in past years. The results will help you decide how hot, cold, wet, or windy it might be!

Date:

Astronomy

Oct. 17, 2012 Rise Set
Actual Time 7:46 AM ADT 6:35 PM ADT
Civil Twilight 7:15 AM ADT 7:06 PM ADT
Nautical Twilight 6:41 AM ADT 7:40 PM ADT
Astronomical Twilight 6:06 AM ADT 8:15 PM ADT
Moon 10:25 AM ADT (10/17) 7:58 PM ADT (10/17)
Length of Visible Light 11h 50m
Length of Day
10h 49m
Waxing Crescent, 6% of the Moon is Illuminated
Oct 17
Waxing Crescent
Oct 22
First Quarter
Oct 29
Full
Nov 6
Last Quarter
Nov 13
New

Hourly Weather History & Observations

Time (ADT) Temp. Windchill Dew Point Humidity Pressure Visibility Wind Dir Wind Speed Gust Speed Precip Events Conditions
12:00 AM 37.4 °F 31.4 °F - N/A% 29.66 in 9.0 mi SW 8.1 mph - N/A   Clear
1:00 AM 35.6 °F 29.9 °F 35.6 °F 100% 29.68 in 9.0 mi SW 6.9 mph - N/A   Clear
2:00 AM 33.8 °F 27.7 °F - N/A% 29.71 in 9.0 mi SSW 6.9 mph - N/A   Clear
3:00 AM 36 °F - 34 °F 90% 29.73 in 10 mi SW 6.9 mph - -  
3:00 AM 35.6 °F 31.7 °F 33.8 °F 93% 29.73 in 9.0 mi SSW 4.6 mph - N/A   Clear
4:00 AM 33.8 °F 27.0 °F - N/A% 29.75 in 9.0 mi SW 8.1 mph - N/A   Clear
5:00 AM 32.0 °F 25.6 °F - N/A% 29.76 in 9.0 mi South 6.9 mph - N/A   Clear
6:00 AM 33.8 °F 25.8 °F - N/A% 29.79 in 9.0 mi South 10.4 mph - N/A   Clear
7:00 AM 33.8 °F 30.8 °F - N/A% 29.81 in 9.0 mi SSW 3.5 mph - N/A   Clear
8:00 AM 32.0 °F 24.8 °F - N/A% 29.83 in 9.0 mi SW 8.1 mph - N/A   Clear
9:00 AM 35 °F - 35 °F 100% 29.85 in 10 mi SW 4.6 mph - -  
9:00 AM 35.6 °F 31.7 °F 35.6 °F 100% 29.85 in 9.0 mi SW 4.6 mph - N/A   Clear
10:00 AM 42.8 °F 38.6 °F 33.8 °F 70% 29.86 in 9.0 mi West 6.9 mph - N/A   Clear
11:00 AM 44.6 °F 39.7 °F 33.8 °F 66% 29.89 in 9.0 mi West 9.2 mph - N/A   Clear
12:00 PM 46.4 °F 41.5 °F 35.6 °F 66% 29.87 in 9.0 mi WNW 10.4 mph - N/A   Clear
1:00 PM 48.2 °F - 35.6 °F 62% 29.86 in 9.0 mi West 8.1 mph - N/A   Clear
2:00 PM 50.0 °F - 35.6 °F 58% 29.83 in 9.0 mi NW 12.7 mph 18.4 mph N/A   Clear
3:00 PM 51 °F - 36 °F 46% 29.84 in 10 mi West 10.4 mph - -  
3:00 PM 51.8 °F - 35.6 °F 54% 29.84 in 9.0 mi West 10.4 mph 18.4 mph N/A   Clear
4:00 PM 51.8 °F - 35.6 °F 54% 29.85 in 9.0 mi WNW 9.2 mph - N/A   Clear
5:00 PM 51.8 °F - 35.6 °F 54% 29.86 in 9.0 mi West 9.2 mph - N/A   Clear
6:00 PM 50.0 °F - 33.8 °F 54% 29.87 in 9.0 mi West 4.6 mph - N/A   Clear
7:00 PM 46.4 °F 44.3 °F 33.8 °F 62% 29.90 in 9.0 mi West 4.6 mph - N/A   Clear
8:00 PM 42.8 °F - 35.6 °F 76% 29.91 in 9.0 mi Variable 2.3 mph - N/A   Clear
9:00 PM 40 °F - 36 °F 78% 29.92 in 10 mi NNW 3.5 mph - -  
9:00 PM 41.0 °F 38.0 °F 35.6 °F 81% 29.92 in 9.0 mi NNW 4.6 mph - N/A   Clear
10:00 PM 33.8 °F 29.6 °F - N/A% 29.93 in 9.0 mi SSW 4.6 mph - N/A   Clear
11:00 PM 32.0 °F 27.5 °F - N/A% 29.95 in 9.0 mi WSW 4.6 mph - N/A   Clear